Starlink 32878

operational
NORAD ID: 62892 Int'l Des: 2025-024 Owner: SPXS Country: US Constellation: starlink
LEOCIRCULAR

Über Starlink 32878

Beschreibung wird geladen...

Live-Position

3D-Globus wird geladen...

Nächste Überflüge

Höhenverlauf

Altitude vs Time

uPlot chart will show altitude changes over time

Zweizeiliger Elementsatz

1 62892U 25024P 26036.38355662 .00049690 00000-0 18032-2 0 9999
2 62892 42.9981 147.9409 0004358 298.4668 61.5744 15.27571771 57326
Epoch: 5. Feb. 2026 • Age: 16 hours

Aktueller Status

Höhe 487.4 km
Geschwindigkeit 7.63 km/s
Subsatellitenpunkt 40.81°N, 56.82°E
Startdatum 4. Feb. 2025
Alter 1 years
Typ internet

Technische Details

Klassifizierung Payload
Masse 730.00 kg
Trockenmasse 700.00 kg
Gesamtmasse 730.00 kg
Länge 0.30 m
Durchmesser 4.10 m
Spannweite 29.00 m
Form Box + pan
Hersteller SPXS
Bus-Typ Starlink V2M
Phasenstatus In Orbit
Besitzer/Staat SPXS/US

Große Konstellationen

Loading constellations...